Location: Davayat
(45.9471°N, 3.1105°E)
Time: 17:51:59
(UTC+00:00)

CZ-2C R/B - Pass Details

Date: 01 December 2020
Orbit: 705 x 907 km, 98.1° (Epoch: 17 January)

Event Time Altitude Azimuth Distance (km) Brightness Sun altitude
Rises 18:53:57 0° 184° (S) 3,230 6.3 -28.8°
Reaches altitude 10° 18:56:24 10° 191° (S) 2,279 5.6 -29.2°
Maximum altitude 19:01:07 41° 262° (W) 1,051 4.1 -30.0°
Drops below altitude 10° 19:05:41 10° 333° (NNW) 2,209 5.6 -30.8°
Sets 19:08:03 0° 340° (NNW) 3,120 6.4 -31.2°
